EW6466 Weather Reports


Display with metric or nautical units.
time (UTC)temp
F
wind
direction
speed
MPH
gust
MPH
rain 1hr
in
rain 24hr
in
rain mn
in
humidity
%
barometer
mb
20260902224540 96 50 3.0 7.0 0.00 0.00 0.00 35 1008.7
20260902223038 97 36 4.0 9.0 0.00 0.00 0.00 34 1008.7
20260902221556 99 94 1.0 6.0 0.00 0.00 0.00 32 1008.8
20260902220037 99 149 2.0 8.0 0.00 0.00 0.00 31 1008.9
20260902214535 98 60 4.0 10.0 0.00 0.00 0.00 33 1008.9
20260902213036 99 38 3.0 13.0 0.00 0.00 0.00 31 1009.0
20260902211533 101 137 4.0 9.0 0.00 0.00 0.00 31 1009.2
20260902210031 101 186 4.0 9.0 0.00 0.00 0.00 31 1009.1
20260902204527 99 290 3.0 9.0 0.00 0.00 0.00 32 1009.5
20260902203025 97 109 5.0 10.0 0.00 0.00 0.00 35 1009.8
20260902201526 99 118 5.0 11.0 0.00 0.00 0.00 34 1010.1
20260902200021 98 65 3.0 8.0 0.00 0.00 0.00 34 1010.3
20260902194526 101 158 3.0 8.0 0.00 0.00 0.00 31 1010.5
20260902193014 99 227 2.0 8.0 0.00 0.00 0.00 33 1010.7
20260902191516 97 223 4.0 9.0 0.00 0.00 0.00 34 1011.0
20260902190010 98 208 2.0 11.0 0.00 0.00 0.00 34 1011.3
20260902184508 97 233 9.0 16.0 0.00 0.00 0.00 37 1011.5
20260902183006 99 163 7.0 12.0 0.00 0.00 0.00 34 1011.7
20260902181503 99 240 5.0 12.0 0.00 0.00 0.00 35 1011.9
20260902180104 98 187 3.0 10.0 0.00 0.00 0.00 36 1012.3
20260902174557 97 216 5.0 17.0 0.00 0.00 0.00 36 1012.5
20260902173058 98 155 5.0 14.0 0.00 0.00 0.00 36 1012.8
20260902171610 96 169 3.0 10.0 0.00 0.00 0.00 38 1013.0
20260902170051 95 160 4.0 10.0 0.00 0.00 0.00 41 1013.2
20260902164600 94 165 6.0 10.0 0.00 0.00 0.00 41 1013.2
20260902163046 94 210 4.0 9.0 0.00 0.00 0.00 43 1013.2
20260902161542 93 223 3.0 10.0 0.00 0.00 0.00 45 1013.3
20260902160046 91 221 3.0 11.0 0.00 0.00 0.00 48 1013.3
20260902154547 90 229 4.0 10.0 0.00 0.00 0.00 52 1013.4
20260902153032 88 194 3.0 9.0 0.00 0.00 0.00 57 1013.4
20260902151533 87 193 3.0 10.0 0.00 0.00 0.00 59 1013.5
20260902150025 86 213 4.0 7.0 0.00 0.00 0.00 61 1013.5
20260902144520 84 227 4.0 6.0 0.00 0.00 0.00 66 1013.4
20260902143017 83 227 3.0 8.0 0.00 0.00 0.00 67 1013.3
20260902141514 82 224 2.0 5.0 0.00 0.00 0.00 71 1013.3
20260902140015 80 224 1.0 3.0 0.00 0.00 0.00 73 1013.3
20260902134511 77 224 0.0 2.0 0.00 0.00 0.00 77 1013.4
20260902133014 74 224 0.0 0.0 0.00 0.00 0.00 81 1013.4
20260902131510 72 224 0.0 0.0 0.00 0.00 0.00 83 1013.3
20260902130024 71 224 0.0 0.0 0.00 0.00 0.00 82 1013.3
20260902124507 71 224 0.0 0.0 0.00 0.00 0.00 82 1013.0
20260902123017 71 224 0.0 2.0 0.00 0.00 0.00 81 1012.8
20260902121505 72 224 1.0 3.0 0.00 0.00 0.00 80 1012.7
20260902120002 72 224 0.0 2.0 0.00 0.00 0.00 79 1012.7
20260902114618 73 224 0.0 2.0 0.00 0.00 0.00 77 1012.7
20260902113055 74 224 1.0 3.0 0.00 0.00 0.00 76 1012.6
20260902111552 75 224 0.0 3.0 0.00 0.00 0.00 76 1012.6
20260902110101 76 224 1.0 3.0 0.00 0.00 0.00 75 1012.6
20260902104556 76 224 1.0 3.0 0.00 0.00 0.00 75 1012.5
20260902103100 76 224 0.0 0.0 0.00 0.00 0.00 75 1012.4
20260902101550 76 224 0.0 3.0 0.00 0.00 0.00 76 1012.4
20260902100049 77 224 1.0 4.0 0.00 0.00 0.00 75 1012.4
20260902094548 77 224 2.0 5.0 0.00 0.00 0.00 74 1012.5
20260902093047 77 224 2.0 6.0 0.00 0.00 0.00 73 1012.6
20260902091547 78 225 1.0 2.0 0.00 0.00 0.00 71 1012.8
20260902090044 78 225 0.0 3.0 0.00 0.00 0.00 70 1012.7
20260902084543 78 225 2.0 6.0 0.00 0.00 0.00 69 1012.8
20260902083044 78 225 1.0 5.0 0.00 0.00 0.00 67 1012.9
20260902081547 78 223 0.0 4.0 0.00 0.00 0.00 66 1012.9
20260902080051 79 222 3.0 8.0 0.00 0.00 0.00 66 1012.9
20260902074547 78 202 3.0 8.0 0.00 0.00 0.00 67 1013.0
20260902073048 79 28 1.0 4.0 0.00 0.00 0.00 66 1013.0
20260902071541 80 30 2.0 4.0 0.00 0.00 0.00 66 1013.0
20260902070038 80 30 0.0 4.0 0.00 0.00 0.00 63 1012.9
20260902064537 81 30 0.0 5.0 0.00 0.00 0.00 63 1013.0
20260902063036 81 30 0.0 3.0 0.00 0.00 0.00 61 1012.9
20260902061534 81 33 2.0 6.0 0.00 0.00 0.00 61 1012.8
20260902060033 82 51 2.0 9.0 0.00 0.00 0.00 59 1012.7
20260902054534 82 73 4.0 10.0 0.00 0.00 0.00 59 1012.6
20260902053031 82 25 4.0 13.0 0.00 0.00 0.00 57 1012.6
20260902051527 76 64 7.0 13.0 0.00 0.00 0.00 63 1012.6
20260902050023 76 34 0.0 0.0 0.00 0.00 0.00 61 1012.4
20260902044521 77 34 0.0 2.0 0.00 0.00 0.00 60 1012.3
20260902043020 77 34 1.0 2.0 0.00 0.00 0.00 59 1012.3
20260902041521 79 34 0.0 2.0 0.00 0.00 0.00 57 1012.4
20260902040021 80 34 0.0 0.0 0.00 0.00 0.00 54 1012.2
20260902034519 81 34 0.0 2.0 0.00 0.00 0.00 52 1012.2
20260902033019 83 34 0.0 3.0 0.00 0.00 0.00 50 1012.1
20260902031518 84 34 1.0 3.0 0.00 0.00 0.00 48 1011.9
20260902030019 85 34 1.0 4.0 0.00 0.00 0.00 46 1011.8
20260902024517 86 34 2.0 5.0 0.00 0.00 0.00 46 1011.5
20260902023034 86 44 0.0 4.0 0.00 0.00 0.00 45 1011.2
20260902021527 87 42 1.0 4.0 0.00 0.00 0.00 44 1011.0
20260902020017 87 42 1.0 3.0 0.00 0.00 0.00 43 1010.7
20260902014514 88 42 0.0 1.0 0.00 0.00 0.00 42 1010.6
20260902013017 89 42 2.0 3.0 0.00 0.00 0.00 41 1010.5
20260902011514 89 42 3.0 5.0 0.00 0.00 0.00 40 1010.3
20260902010014 90 51 2.0 5.0 0.00 0.00 0.00 39 1010.3
20260902004515 91 122 1.0 6.0 0.00 0.00 0.00 39 1010.3
20260902003015 91 88 2.0 7.0 0.00 0.00 0.00 38 1010.3
20260902001512 92 102 2.0 9.0 0.00 0.00 0.00 38 1010.3
20260902000014 92 66 2.0 9.0 0.00 0.00 0.00 37 1010.2
20260901234511 92 54 2.0 5.0 0.00 0.00 0.00 37 1010.3
20260901233010 94 360 3.0 8.0 0.00 0.00 0.00 36 1010.2
20260901231510 94 61 3.0 8.0 0.00 0.00 0.00 37 1010.2
20260901230009 93 80 1.0 13.0 0.00 0.00 0.00 37 1010.0